Airfield :
LOGIN :

Register | Disclaimer

   EN    FR    IT 

 










Legend :    VFR   Marginal VFR   IFR   Intensive IFR   Very Intensive IFR
Visi :
Ceiling :
>= 8 km
>= 3000ft
5 to 8 km
1000 to 3000 ft
1500m to 5 km
500 to 1000 ft
800 to 1500m
200 to 500 ft
< 800m
< 200 ft
Symbols :   Thunderstorms  Fog  Heavy snow  Heavy precipitations  Wind > 20 kt
SIGMETs :     Misc.  Thunderstorms  Icing  Turbulence  Mountain Waves  Volcanic Ashes






- Airport Elevation : 628 ft
- IATA code : CMR


LFGA - Colmar-Houssen

CURRENT METAR :
  • 151400Z AUTO 01003KT 260V070 CAVOK 29/15 Q1013

EXPIRED METARs :
  • 151330Z AUTO VRB03KT CAVOK 28/15 Q1014
  • 151300Z AUTO VRB03KT CAVOK 29/15 Q1014
  • 151230Z AUTO 14004KT 050V220 CAVOK 29/15 Q1014
  • 151200Z AUTO 03003KT 320V100 CAVOK 28/15 Q1014
  • 151130Z AUTO VRB03KT CAVOK 28/15 Q1015

TAF N/A



MET'MAP, your aeronautical weather chart ! - Copyright ORBIFLY December 2007 - Disclaimer

ORBIFLY MET'MAP TEAM :

Programming & Development : Alexandra Zaïnal
Concept & original design : Baudouin d'Aumeries
Assistance for programming : Marc-Olivier Méhu
Technical & hardware support : Manuel Goepfert

Contact : metmap@orbifly.com




SOURCES & CREDITS :

   NOAA